Overview Statistics Trail Chart Weather Telemetry Raw packets
 

This is the latest recevied weather packets stored in our database for station/object IW2HNF-3. If no packets are shown the sender has not sent any weather packets the latest 10 day(s).

<< 2 3 4 5 6 7 8 >>
Time Temp. Humidity Pressure Rain* Wind** Luminosity Snow
1788555671 25.56° C 55% 1017.1 hPa 0 mm - - -
1788555048 25.56° C 52% 1017.2 hPa 0 mm - - -
1788554472 25.56° C 53% 1017.2 hPa 0 mm - - -
1788553848 25.56° C 53% 1017.3 hPa 0 mm - - -
1788553272 26.11° C 52% 1017.3 hPa 0 mm - - -
1788552648 26.67° C 51% 1017.3 hPa 0 mm - - -
1788552312 26.67° C 50% 1017.2 hPa 0 mm - - -
1788551448 27.22° C 50% 1017.1 hPa 0 mm - - -
1788550872 27.22° C 50% 1017.1 hPa 0 mm - - -
1788550248 27.22° C 52% 1017.1 hPa 0 mm - - -
1788549673 27.78° C 51% 1017 hPa 0 mm - - -
1788549048 27.78° C 51% 1016.9 hPa 0 mm - - -
1788548472 27.78° C 50% 1016.8 hPa 0 mm - - -
1788547848 27.78° C 50% 1016.7 hPa 0 mm - - -
1788547272 28.33° C 50% 1016.7 hPa 0 mm - - -
1788546648 28.33° C 49% 1016.5 hPa 0 mm - - -
1788546072 28.89° C 51% 1016.5 hPa 0 mm - - -
1788545448 28.89° C 51% 1016.5 hPa 0 mm - - -
1788545257 29.44° C 48% 1016.4 hPa 0 mm - - -
1788544248 30.56° C 45% 1016.3 hPa 0 mm - - -
1788543672 31.11° C 43% 1016.2 hPa 0 mm - - -
1788543047 31.11° C 42% 1016.1 hPa 0 mm - - -
1788542472 31.67° C 41% 1016.1 hPa 0 mm - - -
1788541848 31.67° C 40% 1016.2 hPa 0 mm - - -
1788541272 32.22° C 40% 1016.3 hPa 0 mm - - -

* Rain latest hour (hover to see other rain measurements)
** Current wind speed in m/s (hover to see current wind gust speed)